Weather History for Santa Ana, CA

Change the Weather History Date:

Saturday, January 5, 2013

  Actual Average Record
Temperature  
Mean Temperature 50 °F 56 °F  
Max Temperature 61 °F 66 °F 89 °F (2006)
Min Temperature 39 °F 46 °F 39 °F (2004)
Degree Days  
Heating Degree Days 15 9  
Month to date heating degree days 61 45  
Since 1 July heating degree days 360 477  
Cooling Degree Days 0 0  
Month to date cooling degree days 0 0  
Year to date cooling degree days 0 0  
Moisture  
Dew Point 36 °F    
Average Humidity 58    
Maximum Humidity 83    
Minimum Humidity 32    
Precipitation  
Precipitation 0.00 in 0.12 in 0.71 in (2008)
Month to date precipitation 0.00 0.62  
Year to date precipitation 0.00 0.62  
Since 1 July precipitation 3.02 4.99  
Snow  
Snow 0.00 in - - ()
Month to date snowfall 0.0  
Year to date snowfall 0.0  
Since 1 July snowfall 0.0  
Snow Depth 0.00 in    
Sea Level Pressure  
Sea Level Pressure 30.23 in    
Wind  
Wind Speed 2 mph (SSW)    
Max Wind Speed 9 mph    
Max Gust Speed 13 mph    
Visibility 10 miles    
Events      
T = Trace of Precipitation, MM = Missing Value Source: NWS Daily Summary

Daily Weather History Graph

Daily Weather History Graph

Search for Another Location

Airport:

Trip Planner

Search our weather history database for the weather conditions in past years. The results will help you decide how hot, cold, wet, or windy it might be!

Date:

Astronomy

Jan. 05, 2013 Rise Set
Actual Time 6:56 AM PST 4:57 PM PST
Civil Twilight 6:29 AM PST 5:25 PM PST
Nautical Twilight 5:58 AM PST 5:55 PM PST
Astronomical Twilight 5:28 AM PST 6:26 PM PST
Moon 12:18 AM PST (1/5) 11:42 AM PST (1/5)
Length of Visible Light 10h 55m
Length of Day
10h 00m
Last Quarter, 43% of the Moon is Illuminated
Jan 5
Last Quarter
Jan 11
New
Jan 18
First Quarter
Jan 26
Full
Feb 3
Last Quarter

Hourly Weather History & Observations

Time (PST) Temp. Windchill Dew Point Humidity Pressure Visibility Wind Dir Wind Speed Gust Speed Precip Events Conditions
12:53 AM 43.0 °F - 30.0 °F 60% 30.24 in 10.0 mi Calm Calm - N/A   Clear
1:53 AM 42.1 °F - 28.9 °F 60% 30.24 in 10.0 mi Calm Calm - N/A   Clear
2:53 AM 41.0 °F - 28.9 °F 62% 30.25 in 10.0 mi Calm Calm - N/A   Clear
3:53 AM 41.0 °F - 28.9 °F 62% 30.24 in 10.0 mi Calm Calm - N/A   Clear
4:53 AM 39.9 °F - 30.0 °F 68% 30.26 in 10.0 mi Calm Calm - N/A   Clear
5:53 AM 41.0 °F - 27.0 °F 57% 30.27 in 10.0 mi Calm Calm - N/A   Clear
6:53 AM 39.9 °F 37.8 °F 28.0 °F 63% 30.27 in 10.0 mi NNE 3.5 mph - N/A   Clear
7:53 AM 43.0 °F - 28.0 °F 56% 30.28 in 10.0 mi Calm Calm - N/A   Clear
8:53 AM 50.0 °F - 32.0 °F 50% 30.29 in 10.0 mi ENE 3.5 mph - N/A   Partly Cloudy
9:53 AM 54.0 °F - 36.0 °F 51% 30.29 in 10.0 mi Calm Calm - N/A   Partly Cloudy
10:53 AM 59.0 °F - 37.0 °F 44% 30.27 in 10.0 mi SW 5.8 mph - N/A   Partly Cloudy
11:53 AM 60.1 °F - 30.0 °F 32% 30.24 in 10.0 mi SW 5.8 mph - N/A   Partly Cloudy
12:53 PM 60.1 °F - 33.1 °F 36% 30.21 in 10.0 mi SSW 3.5 mph - N/A   Partly Cloudy
1:53 PM 60.1 °F - 39.9 °F 47% 30.20 in 10.0 mi SW 5.8 mph - N/A   Scattered Clouds
2:53 PM 59.0 °F - 41.0 °F 51% 30.19 in 10.0 mi SW 6.9 mph - N/A   Mostly Cloudy
3:53 PM 57.9 °F - 44.1 °F 60% 30.20 in 10.0 mi SW 5.8 mph - N/A   Overcast
4:53 PM 55.0 °F - 46.9 °F 74% 30.19 in 10.0 mi South 3.5 mph - N/A   Mostly Cloudy
5:53 PM 54.0 °F - 46.9 °F 77% 30.19 in 9.0 mi Calm Calm - N/A   Mostly Cloudy
6:53 PM 52.0 °F - 46.0 °F 80% 30.19 in 9.0 mi Calm Calm - N/A   Mostly Cloudy
7:53 PM 50.0 °F - 44.1 °F 80% 30.19 in 10.0 mi ESE 3.5 mph - N/A   Mostly Cloudy
8:53 PM 51.1 °F - 44.1 °F 77% 30.22 in 8.0 mi Calm Calm - N/A   Overcast
9:53 PM 48.0 °F - 39.9 °F 74% 30.22 in 10.0 mi Calm Calm - N/A   Overcast
10:53 PM 48.0 °F - 41.0 °F 77% 30.22 in 10.0 mi Calm Calm - N/A   Mostly Cloudy
11:53 PM 46.9 °F - 39.9 °F 77% 30.21 in 10.0 mi Calm Calm - N/A   Clear